Regional Weather Roundup
Issued by NWS

Home | Current Version | Previous Version | Text Only | Print | Product List | Glossary Off
Versions: 1 2 3 4 5 6 7 8 9 10 11 12 13 14 15 16 17 18 19 20 21 22 23 24 25 26 27 28 29 30 31 32 33 34 35 36 37 38 39 40 41 42 43 44 45 46 47 48 49 50

666
ASUS43 KFSD 262002
RWRSD

WEATHER ROUNDUP FOR SOUTH DAKOTA
NATIONAL WEATHER SERVICE SIOUX FALLS SD
200 PM CST SUN FEB 26 2017

NOTE: "FAIR" INDICATES FEW OR NO CLOUDS BELOW 12,000 FEET WITH NO
SIGNIFICANT WEATHER AND/OR OBSTRUCTIONS TO VISIBILITY.


SDZ001>005-009-010-012>017-262100-
NORTHWEST AND NORTH CENTRAL SOUTH DAKOTA

CITY           SKY/WX    TMP DP  RH WIND       PRES   REMARKS
BUFFALO          N/A     37  16  42 W24       29.64F
FAITH            N/A     38  16  40 W22G30    29.73F
MOBRIDGE       SUNNY     38  21  50 NW8       29.73F
$$

SDZ012>016-024>037-041>051-057-063-072>074-262100-
SOUTHWEST AND SOUTH CENTRAL SOUTH DAKOTA

CITY           SKY/WX    TMP DP  RH WIND       PRES   REMARKS
RAPID CTY ARPT CLOUDY    39  15  37 N9        29.75F
PIERRE         MOSUNNY   43  13  29 W12       29.77F
CUSTER         CLOUDY    25   5  42 W13G23    29.69F WCI  14
ELLSWORTH AFB  MOSUNNY   37  13  36 N10       29.75F
PHILIP         PTSUNNY   42  11  28 W14G26    29.77F
PINE RIDGE     SUNNY     27  12  53 SW9       29.83F WCI  18
SPEARFISH      FAIR      34  12  40 W21       29.73S WCI  22
WINNER         FAIR      38  23  55 SW12      29.83F
$$

SDZ004>011-016>023-039-040-262100-
NORTHEAST SOUTH DAKOTA

CITY           SKY/WX    TMP DP  RH WIND       PRES   REMARKS
ABERDEEN       CLOUDY    28  17  63 VRB5      29.84S WCI  23
WATERTOWN      PTSUNNY   32  18  56 S6        29.81S WCI  26
BROOKINGS      SUNNY     37  21  52 W14       29.81F
SISSETON         N/A     24  16  71 VRB6      29.86R WCI  17
$$

SDZ017-020-022-023-036>040-048>070-262100-
SOUTHEAST SOUTH DAKOTA

CITY           SKY/WX    TMP DP  RH WIND       PRES   REMARKS
SIOUX FALLS    MOSUNNY   33  26  75 SW9       29.87S WCI  25
HURON          SUNNY     38  22  52 SW9       29.83F
CHAMBERLAIN    PTSUNNY   42  17  35 SW7       29.81F
MITCHELL       MOSUNNY   39  26  59 S14       29.86S
YANKTON        SUNNY     36  21  55 E3        29.89S
$$

ABBREVIATIONS USED IN REMARKS
   TC - TEMPERATURE IN CELSIUS
  WCI - WIND CHILL INDEX
   HX - HEAT INDEX
  VSB - VISIBILITY





USA.gov is the U.S. government's official web portal to all federal, state and local government web resources and services.